{"data":{"norad_id":45425,"epoch":"2026-05-25T03:26:00.696768Z","epoch_age_seconds":62121,"freshness":"FRESH","line1":"1 45425U 20020B   26145.14306362 -.00000207  00000+0 -62039-3 0  9990","line2":"2 45425  87.8929  25.5738 0001978  84.7898 275.3456 13.11421409299710","mean_motion":13.11421409,"eccentricity":0.0001978,"inclination_deg":87.8929,"raan_deg":25.5738,"arg_perigee_deg":84.7898,"mean_anomaly_deg":275.3456,"bstar":-0.00062039,"rev_number":29971,"period_min":109.80452127116,"perigee_km":1216.1630114933,"apogee_km":1219.167910947,"semimajor_km":7595.8024612201,"source":"CELESTRAK","updated_at":"2026-05-25T13:38:22.340804Z"}}